Harrisburg, PA

5:05 AM EDT on July 28, 2017 (GMT -0400)
Capital City

Weather History for KCXY - February, 2013

Change the Weather History Date:

Wednesday, February 20, 2013

  Actual Average Record
Temperature  
Mean Temperature 28 °F -  
Max Temperature 33 °F 41 °F 72 °F (1930)
Min Temperature 24 °F 25 °F 0 °F (1979)
Degree Days  
Heating Degree Days 36    
Moisture  
Dew Point 12 °F    
Average Humidity 53    
Maximum Humidity 71    
Minimum Humidity 43    
Precipitation  
Precipitation 0.00 in - - ()
Sea Level Pressure  
Sea Level Pressure 30.01 in    
Wind  
Wind Speed 15 mph (WNW)    
Max Wind Speed 21 mph    
Max Gust Speed 34 mph    
Visibility 9 miles    
Events Snow    
Averages and records for this station are not official NWS values.
T = Trace of Precipitation, MM = Missing Value Source: NWS Daily Summary

Daily Weather History Graph

Daily Weather History Graph

Search for Another Location

Airport or City:

Trip Planner

Search our weather history database for the weather conditions in past years. The results will help you decide how hot, cold, wet, or windy it might be!

Date:

Astronomy

Feb. 20, 2013 Rise Set
Actual Time 6:53 AM EST 5:49 PM EST
Civil Twilight 6:26 AM EST 6:16 PM EST
Nautical Twilight 5:54 AM EST 6:48 PM EST
Astronomical Twilight 5:22 AM EST 7:19 PM EST
Moon 1:08 PM EST (2/20) 3:12 AM EST (2/20)
Length of Visible Light 11h 50m
Length of Day
10h 55m
Waxing Gibbous, 76% of the Moon is Illuminated
Feb 20
Waxing Gibbous
Feb 25
Full
Mar 4
Last Quarter
Mar 11
New
Mar 19
First Quarter

Hourly Weather History & Observations

Time (EST) Temp. Windchill Dew Point Humidity Pressure Visibility Wind Dir Wind Speed Gust Speed Precip Events Conditions
12:56 AM 33.1 °F 23.9 °F 15.1 °F 48% 29.86 in 10.0 mi West 12.7 mph - N/A   Scattered Clouds
1:56 AM 32.0 °F 19.8 °F 12.9 °F 45% 29.87 in 10.0 mi WNW 20.7 mph 34.5 mph N/A   Mostly Cloudy
2:56 AM 30.9 °F 21.7 °F 14.0 °F 50% 29.88 in 10.0 mi West 11.5 mph 18.4 mph N/A   Overcast
3:56 AM 30.0 °F 21.7 °F 16.0 °F 56% 29.88 in 10.0 mi WNW 9.2 mph - N/A   Overcast
7:56 AM 26.1 °F 12.3 °F 12.9 °F 58% 29.99 in 10.0 mi WNW 19.6 mph 27.6 mph N/A   Overcast
8:46 AM 24.8 °F 12.9 °F 15.8 °F 69% 30.00 in 1.8 mi WNW 13.8 mph 20.7 mph 0.00 in Snow Light Snow
8:56 AM 24.1 °F 12.5 °F 16.0 °F 71% 30.02 in 1.8 mi WNW 12.7 mph 19.6 mph 0.00 in Snow Light Snow
9:02 AM 24.8 °F 12.9 °F 15.8 °F 69% 30.00 in 3.0 mi WNW 13.8 mph - 0.00 in Snow Light Snow
9:14 AM 24.8 °F 12.4 °F 12.2 °F 59% 30.00 in 10.0 mi WNW 15.0 mph 24.2 mph 0.00 in   Mostly Cloudy
9:56 AM 27.0 °F 17.3 °F 14.0 °F 58% 30.01 in 10.0 mi West 10.4 mph 18.4 mph 0.00 in   Mostly Cloudy
10:56 AM 28.0 °F 14.9 °F 9.0 °F 45% 30.00 in 10.0 mi WNW 19.6 mph 28.8 mph N/A   Mostly Cloudy
11:56 AM 28.0 °F 15.3 °F 10.9 °F 49% 30.00 in 10.0 mi West 18.4 mph 28.8 mph N/A   Overcast
12:56 PM 28.9 °F 17.7 °F 9.0 °F 43% 30.00 in 10.0 mi West 15.0 mph 28.8 mph N/A   Overcast
2:56 PM 28.0 °F 15.3 °F 10.0 °F 47% 30.02 in 10.0 mi West 18.4 mph 24.2 mph N/A   Overcast
4:56 PM 27.0 °F 14.3 °F 9.0 °F 47% 30.06 in 10.0 mi WNW 17.3 mph 23.0 mph N/A   Overcast
5:56 PM 27.0 °F 14.3 °F 10.0 °F 49% 30.08 in 10.0 mi WNW 17.3 mph 25.3 mph N/A   Overcast
6:56 PM 26.1 °F 13.6 °F 10.0 °F 51% 30.10 in 10.0 mi West 16.1 mph 20.7 mph N/A   Overcast
7:56 PM 25.0 °F 11.3 °F 9.0 °F 51% 30.11 in 10.0 mi WNW 18.4 mph 26.5 mph N/A   Clear
8:56 PM 25.0 °F 11.7 °F 8.1 °F 49% 30.10 in 10.0 mi WNW 17.3 mph 28.8 mph N/A   Clear
9:56 PM 24.1 °F 12.0 °F 8.1 °F 51% 30.12 in 10.0 mi WNW 13.8 mph 19.6 mph N/A   Mostly Cloudy
11:56 PM 24.1 °F 12.5 °F 9.0 °F 53% 30.13 in 10.0 mi WNW 12.7 mph 21.9 mph N/A   Overcast